Vorticity
5 5 5 5 5 4 4 5 5 6 8 8 8 7 5 4 6 8 7 8 6 7 7 7 7 8 7 7 9 5 3 6 8 8 7 9 7 7 7 3 3 5 5 7 7 5 3
4 4 4 4 4 4 5 6 6 8 8 8 7 5 4 7 8 7 5 4 7 8 7 7 6 9 10 5 10 9 12 4 5 7 7 8 6 5 4 6 7 3 5 5 6 5 5
6 6 6 5 5 6 7 7 8 9 9 7 4 4 7 7 7 5 5 9 12 11 10 8 8 7 4 8 6 7 9 9 6 6 8 8 7 6 3 5 18 10 9 9 9 10 8
6 7 7 6 7 8 8 8 8 8 6 4 5 8 6 7 5 9 13 8 3 3 3 4 5 4 8 7 8 11 10 8 9 10 10 7 1 -3 2 6 9 8 15 16 17 10 6
6 6 6 7 8 8 8 8 7 6 5 4 5 5 5 3 12 6 4 7 8 10 10 10 11 10 16 20 16 11 11 12 13 12 8 3 0 2 5 12 9 11 -5 11 4 8 4
7 7 7 7 8 7 7 7 6 5 5 6 6 6 4 7 8 4 7 10 10 10 15 10 21 14 5 -3 -5 1 3 4 2 -3 -3 6 11 9 12 16 -7 -7 15 9 3 8 4
8 8 8 7 7 7 7 6 5 6 7 7 6 5 4 7 10 5 9 9 10 18 5 14 9 13 14 14 15 16 16 18 16 17 17 16 20 25 3 13 3 -0 7 7 13 13 3
7 7 8 8 8 7 6 6 5 6 8 8 6 4 5 8 9 8 7 10 10 6 9 13 9 17 16 13 17 17 18 18 19 15 10 9 8 3 6 12 11 13 6 3 13 20 17
7 7 7 7 7 8 7 5 6 8 8 6 4 4 7 9 8 7 9 10 11 9 9 19 14 9 11 10 10 7 7 4 5 3 4 2 -18 -1 4 9 14 17 11 6 3 5 7
7 6 7 7 6 7 6 4 5 8 6 4 4 6 10 8 9 9 10 11 10 8 25 13 14 10 6 8 7 4 3 1 1 -1 3 26 14 16 3 8 8 2 8 6 7 14 18
8 7 7 7 7 7 5 4 5 7 6 4 5 8 8 8 8 10 11 11 10 10 14 8 11 6 9 3 -1 12 3 1 -3 8 10 6 8 7 1 10 9 3 -7 0 5 9 16
8 8 8 7 7 6 6 5 5 6 6 4 5 9 7 8 11 11 13 12 12 19 13 6 5 3 7 5 4 -3 1 10 11 20 4 14 19 14 4 13 15 -1 10 18 25 20 41
8 8 7 7 8 7 5 6 6 7 5 6 9 8 6 8 11 11 12 11 17 8 9 14 7 8 6 -0 4 10 12 20 2 14 2 -16 35 20 5 2 19 19 17 15 24 21 -11
8 8 8 7 8 7 6 7 7 6 5 10 13 6 8 9 11 12 8 12 13 6 -3 -7 1 5 6 5 13 23 7 15 6 7 17 12 21 5 5 8 3 -16 -5 -21 11 3 -25
13 9 8 8 7 7 7 6 7 6 8 13 7 6 8 11 10 10 11 17 2 11 13 13 3 23 17 21 8 7 20 11 13 17 3 7 30 -3 -21 3 -7 -10 -0 -4 19 22 32
9 13 9 8 8 7 8 7 7 7 10 6 6 6 8 12 12 10 10 -2 -7 -0 -4 4 8 10 1 8 10 9 14 -2 8 14 3 7 16 30 20 15 27 8 2 29 9 15 14
7 7 14 11 8 7 8 8 7 8 9 7 6 6 12 13 11 11 8 -2 6 11 10 19 8 5 0 -3 7 10 8 -5 6 19 15 4 20 -8 -20 -11 -8 15 21 9 10 1 3
3 3 5 10 10 9 8 8 8 8 9 7 7 6 9 7 10 5 7 12 13 6 8 8 12 4 8 6 18 18 -3 -2 -13 -0 4 7 9 5 -13 56 36 29 17 13 12 -1 -27
8 7 -2 6 9 10 10 9 9 9 9 8 7 7 9 12 9 11 17 11 7 7 14 7 5 -0 5 4 14 17 10 9 8 8 -1 -20 13 14 31 14 12 -13 -0 2 10 19 11
9 7 18 5 3 8 11 10 10 10 9 9 10 12 2 3 12 7 4 10 17 7 8 12 10 10 11 10 13 -5 4 8 2 2 17 16 29 7 -26 -30 -10 11 8 12 7 8 5
12 -7 15 14 19 17 9 13 11 11 9 9 9 10 9 -8 -6 5 6 -4 -1 3 6 10 11 9 11 16 10 18 14 8 9 10 20 26 3 17 12 9 8 11 6 -7 13 12 15
10 13 5 15 12 18 12 12 13 11 10 10 9 10 12 11 9 9 9 8 8 12 12 9 11 11 11 14 1 -5 -3 13 25 9 22 10 12 10 4 11 3 36 7 1 21 12 -23
17 16 5 0 11 33 15 13 14 12 11 11 12 10 10 7 10 10 8 6 7 9 8 14 11 12 8 8 15 14 16 14 5 0 -1 9 5 3 15 7 4 35 33 11 10 14 3
9 13 15 13 33 13 13 13 12 14 10 7 8 9 7 7 8 8 11 9 11 12 9 10 12 13 16 13 12 14 13 16 19 19 19 -4 7 5 -2 15 35 29 -0 2 11 10 7
5 22 19 8 28 10 11 12 3 4 9 13 11 15 2 3 9 6 7 14 13 12 13 8 12 11 14 14 16 24 16 14 24 21 17 12 7 4 17 3 -19 4 14 16 3 -3 14
14 23 6 40 8 11 6 2 2 12 9 4 8 12 7 10 4 16 11 10 9 8 10 11 14 12 15 9 22 14 1 6 13 11 10 10 11 7 -9 11 25 16 22 10 6 29 14
10 13 32 12 12 6 2 13 12 3 3 5 10 9 15 13 8 14 18 15 15 13 8 13 16 13 10 19 12 10 22 15 9 9 11 17 14 7 3 17 13 3 -1 6 34 -24 -23
12 20 16 9 2 3 13 3 10 7 20 16 13 6 9 11 9 18 14 14 11 10 7 14 17 13 20 21 6 13 18 10 9 4 5 6 7 9 22 19 26 -3 -25 8 -0 2 14
24 31 5 5 14 12 -2 14 24 14 12 11 12 10 8 12 6 13 10 10 16 16 5 11 7 3 6 8 15 8 -1 2 0 10 9 21 16 -7 -1 -14 -13 6 26 -1 10 15 14
Height
3145 3147 3147 3148 3147 3147 3147 3147 3146 3145 3144 3143 3142 3142 3141 3140 3139 3138 3136 3134 3132 3131 3130 3129 3127 3126 3125 3125 3125 3124 3124 3123 3123 3124 3123 3124 3124 3124 3124 3124 3124 3124 3124 3124 3124 3124 3123
3143 3144 3145 3146 3146 3146 3147 3146 3145 3144 3143 3142 3141 3141 3140 3139 3138 3136 3135 3133 3131 3129 3128 3126 3125 3124 3123 3123 3122 3122 3122 3122 3122 3122 3122 3122 3123 3123 3123 3123 3123 3122 3122 3121 3121 3121 3120
3141 3143 3144 3144 3144 3144 3144 3145 3144 3143 3143 3142 3141 3140 3139 3137 3136 3134 3132 3131 3128 3127 3126 3124 3123 3122 3121 3121 3119 3119 3119 3120 3120 3120 3120 3121 3121 3121 3122 3121 3121 3120 3119 3118 3118 3118 3116
3139 3140 3141 3141 3142 3142 3142 3141 3141 3141 3141 3140 3139 3138 3137 3136 3134 3132 3130 3128 3127 3125 3123 3122 3120 3119 3117 3117 3116 3116 3116 3117 3117 3118 3118 3118 3119 3119 3119 3119 3119 3118 3118 3115 3114 3114 3113
3138 3139 3139 3139 3140 3140 3139 3140 3140 3139 3138 3138 3137 3136 3135 3133 3131 3129 3127 3125 3123 3122 3120 3118 3116 3115 3115 3113 3113 3113 3113 3114 3114 3115 3115 3116 3116 3116 3116 3116 3116 3115 3114 3114 3114 3112 3110
3139 3139 3138 3138 3138 3138 3137 3137 3137 3137 3137 3136 3135 3134 3132 3131 3129 3127 3125 3122 3120 3118 3116 3114 3112 3114 3112 3112 3111 3110 3111 3111 3112 3112 3113 3113 3112 3111 3112 3112 3111 3113 3113 3112 3111 3109 3106
3137 3138 3138 3137 3136 3136 3136 3136 3136 3135 3134 3133 3132 3131 3130 3129 3126 3124 3122 3120 3120 3117 3113 3111 3111 3109 3108 3108 3107 3107 3107 3107 3108 3109 3109 3109 3109 3109 3110 3111 3109 3108 3108 3107 3107 3108 3102
3133 3134 3135 3136 3136 3134 3134 3134 3134 3133 3132 3131 3131 3129 3127 3125 3123 3121 3119 3116 3114 3114 3110 3108 3107 3106 3106 3105 3105 3105 3105 3107 3107 3106 3107 3108 3107 3108 3109 3109 3107 3106 3104 3103 3102 3102 3100
3130 3131 3131 3132 3133 3133 3133 3133 3132 3130 3130 3129 3128 3126 3124 3122 3120 3118 3115 3114 3112 3110 3109 3106 3105 3104 3105 3105 3105 3105 3106 3106 3107 3107 3106 3106 3106 3105 3105 3105 3103 3102 3100 3100 3099 3096 3094
3129 3128 3128 3129 3130 3130 3130 3130 3130 3129 3127 3126 3125 3124 3122 3119 3119 3115 3112 3111 3109 3108 3106 3106 3104 3105 3105 3104 3104 3104 3104 3107 3106 3106 3105 3104 3102 3102 3101 3102 3101 3099 3099 3097 3095 3093 3088
3127 3127 3126 3125 3126 3126 3126 3127 3126 3126 3125 3123 3122 3121 3119 3117 3114 3113 3112 3109 3108 3107 3108 3105 3103 3103 3102 3105 3104 3103 3103 3102 3102 3102 3103 3103 3099 3099 3098 3099 3098 3096 3093 3093 3091 3089 3084
3124 3125 3125 3124 3123 3123 3123 3124 3124 3123 3122 3121 3119 3118 3116 3114 3112 3110 3108 3107 3107 3107 3102 3102 3101 3101 3102 3101 3101 3100 3100 3100 3098 3096 3097 3097 3096 3094 3093 3092 3092 3090 3089 3087 3085 3085 3078
3119 3120 3121 3122 3121 3120 3120 3120 3119 3119 3118 3117 3116 3114 3113 3112 3110 3108 3107 3107 3108 3103 3103 3101 3101 3101 3100 3098 3097 3097 3096 3096 3096 3095 3093 3093 3091 3089 3088 3087 3088 3087 3087 3084 3081 3078 3069
3114 3115 3116 3117 3117 3117 3116 3116 3115 3115 3114 3113 3112 3111 3110 3108 3107 3106 3106 3107 3105 3101 3099 3098 3098 3098 3098 3098 3095 3093 3093 3092 3093 3093 3090 3089 3088 3087 3085 3086 3087 3085 3086 3085 3077 3070 3067
3109 3111 3112 3112 3112 3113 3112 3112 3111 3111 3109 3108 3108 3107 3107 3105 3104 3103 3104 3103 3101 3100 3099 3098 3097 3096 3095 3094 3095 3092 3092 3091 3089 3090 3092 3087 3085 3082 3081 3082 3083 3081 3080 3078 3074 3067 3068
3105 3104 3106 3107 3107 3108 3108 3108 3108 3106 3105 3105 3104 3103 3103 3102 3101 3100 3100 3098 3097 3097 3097 3097 3096 3096 3096 3092 3094 3092 3088 3086 3085 3087 3086 3084 3080 3078 3077 3077 3078 3078 3075 3073 3072 3066 3058
3101 3101 3102 3103 3103 3102 3103 3103 3103 3103 3102 3101 3101 3101 3100 3098 3097 3097 3097 3094 3092 3092 3093 3094 3092 3092 3091 3091 3090 3089 3086 3083 3081 3081 3081 3081 3080 3077 3074 3074 3072 3070 3068 3069 3067 3065 3058
3095 3096 3096 3097 3098 3098 3098 3098 3098 3097 3098 3098 3097 3097 3097 3095 3097 3093 3091 3091 3091 3088 3088 3089 3088 3088 3086 3085 3085 3086 3083 3080 3078 3077 3077 3075 3076 3069 3068 3065 3065 3064 3065 3065 3064 3061 3060
3090 3090 3092 3091 3092 3092 3093 3093 3093 3092 3092 3092 3092 3092 3092 3092 3091 3088 3089 3088 3087 3085 3085 3084 3083 3082 3082 3081 3083 3078 3075 3075 3073 3073 3072 3069 3070 3067 3065 3065 3064 3061 3063 3063 3062 3058 3054
3083 3084 3086 3085 3085 3086 3087 3087 3087 3087 3087 3088 3088 3087 3087 3086 3087 3085 3083 3084 3083 3082 3081 3080 3079 3078 3076 3075 3076 3073 3072 3068 3067 3068 3069 3068 3066 3066 3064 3062 3063 3060 3058 3057 3056 3052 3048
3076 3078 3079 3079 3079 3078 3080 3081 3081 3081 3082 3083 3082 3081 3083 3081 3082 3081 3081 3078 3078 3078 3077 3076 3073 3073 3072 3070 3068 3069 3068 3065 3061 3062 3062 3061 3059 3059 3058 3057 3057 3055 3055 3054 3052 3050 3046
3068 3070 3071 3072 3072 3071 3073 3075 3076 3077 3077 3078 3078 3078 3078 3078 3077 3076 3076 3075 3073 3073 3073 3071 3069 3068 3068 3067 3064 3063 3060 3060 3061 3057 3058 3057 3056 3055 3054 3054 3052 3049 3048 3047 3044 3043 3041
3060 3062 3064 3065 3064 3064 3067 3071 3071 3071 3071 3072 3073 3073 3073 3073 3073 3073 3071 3070 3069 3069 3067 3065 3064 3062 3061 3060 3059 3057 3056 3057 3056 3056 3056 3055 3055 3054 3050 3051 3049 3046 3042 3040 3039 3038 3036
3054 3056 3057 3058 3059 3060 3062 3065 3066 3066 3067 3068 3068 3069 3069 3068 3068 3068 3068 3067 3065 3063 3062 3061 3059 3057 3056 3054 3053 3052 3051 3050 3049 3049 3050 3051 3052 3052 3048 3047 3046 3041 3039 3037 3035 3034 3031
3046 3048 3049 3052 3054 3058 3059 3060 3061 3062 3063 3063 3064 3065 3063 3062 3064 3065 3062 3061 3059 3057 3057 3056 3054 3052 3051 3050 3050 3048 3047 3047 3045 3045 3046 3047 3050 3049 3048 3045 3042 3037 3036 3034 3031 3029 3025
3040 3042 3043 3046 3050 3054 3055 3056 3056 3058 3058 3058 3059 3060 3059 3058 3058 3057 3056 3055 3053 3051 3052 3052 3049 3048 3048 3047 3048 3048 3047 3044 3045 3043 3044 3045 3045 3046 3044 3042 3037 3034 3034 3032 3028 3024 3020
3034 3037 3037 3042 3047 3050 3052 3053 3052 3054 3054 3054 3054 3056 3055 3053 3051 3050 3049 3050 3049 3047 3047 3047 3045 3044 3043 3043 3046 3045 3045 3043 3044 3043 3042 3043 3042 3041 3038 3036 3034 3032 3031 3030 3028 3026 3017
3030 3031 3034 3038 3043 3045 3048 3049 3048 3049 3051 3050 3049 3050 3052 3048 3046 3045 3045 3044 3044 3044 3043 3043 3043 3040 3040 3041 3043 3042 3041 3042 3042 3041 3041 3041 3040 3038 3036 3033 3032 3030 3028 3029 3023 3018 3012
3025 3025 3031 3034 3039 3041 3042 3046 3044 3045 3047 3046 3046 3045 3045 3045 3043 3042 3040 3040 3041 3040 3042 3041 3042 3039 3039 3039 3039 3040 3040 3039 3039 3038 3036 3037 3038 3037 3037 3035 3029 3027 3024 3020 3015 3011 3006